GW3385 Weather Reports


time (UTC)temp
C
wind
direction
speed
KPH
gust
KPH
rain 1hr
cm
rain 24hr
cm
rain mn
cm
humidity
%
barometer
mb
20260504195052 17 259 12.9 29.0 0.00 0.00 0.00 64 1014.3
20260504194555 17 267 9.7 29.0 0.00 0.00 0.00 63 1014.3
20260504194056 17 284 12.9 27.4 0.00 0.00 0.00 64 1014.4
20260504193556 17 236 8.0 32.2 0.00 0.00 0.00 65 1014.5
20260504193055 17 297 14.5 32.2 0.00 0.00 0.00 65 1014.5
20260504192555 17 290 9.7 25.7 0.00 0.00 0.00 65 1014.4
20260504192055 17 278 11.3 25.7 0.00 0.00 0.00 64 1014.5
20260504191557 17 228 9.7 22.5 0.00 0.00 0.00 64 1014.5
20260504191056 17 211 8.0 24.1 0.00 0.00 0.00 64 1014.5
20260504190556 17 281 9.7 24.1 0.00 0.00 0.00 65 1014.4
20260504190107 17 257 9.7 24.1 0.00 0.00 0.00 65 1014.5
20260504185555 16 227 11.3 25.7 0.00 0.00 0.00 66 1014.5
20260504185055 16 155 9.7 25.7 0.00 0.00 0.00 67 1014.7
20260504184613 16 218 12.9 24.1 0.00 0.00 0.00 66 1014.8
20260504184052 16 261 9.7 20.9 0.00 0.00 0.00 67 1014.9
20260504183555 16 221 8.0 22.5 0.00 0.00 0.00 67 1014.9
20260504183111 16 186 6.4 22.5 0.00 0.00 0.00 68 1014.7
20260504182552 16 190 6.4 24.1 0.00 0.00 0.00 69 1014.8
20260504182053 16 277 14.5 24.1 0.00 0.00 0.00 67 1014.7
20260504181552 16 207 9.7 25.7 0.00 0.00 0.00 68 1014.7
20260504181056 16 264 9.7 25.7 0.00 0.00 0.00 68 1014.8
20260504180556 16 304 12.9 25.7 0.00 0.00 0.00 67 1014.9
20260504180056 16 246 11.3 24.1 0.00 0.00 0.00 67 1014.8
20260504175556 16 240 9.7 24.1 0.00 0.00 0.00 68 1014.7
20260504175056 16 240 12.9 27.4 0.00 0.00 0.00 67 1014.8
20260504174604 16 182 11.3 27.4 0.00 0.00 0.00 69 1014.7
20260504174057 16 225 14.5 25.7 0.00 0.00 0.00 70 1014.6
20260504173556 16 140 11.3 20.9 0.00 0.00 0.00 70 1014.5
20260504173106 16 212 11.3 19.3 0.00 0.00 0.00 71 1014.5
20260504172555 16 246 11.3 19.3 0.00 0.00 0.00 71 1014.5
20260504172055 16 234 6.4 16.1 0.00 0.00 0.00 72 1014.5
20260504171558 16 171 8.0 16.1 0.00 0.00 0.00 71 1014.5
20260504171055 16 224 6.4 16.1 0.00 0.00 0.00 71 1014.4
20260504170557 16 261 9.7 16.1 0.00 0.00 0.00 70 1014.4
20260504151055 15 54 0.0 4.8 0.00 0.00 0.00 79 1013.9
20260504150557 14 0 0.0 4.8 0.00 0.00 0.00 79 1013.9
20260504150103 14 22 0.0 9.7 0.00 0.00 0.00 80 1014.0
20260504141055 13 350 0.0 1.6 0.00 0.00 0.00 83 1013.7
20260504140555 13 0 0.0 1.6 0.00 0.00 0.00 85 1013.7
20260504130557 13 47 1.6 3.2 0.00 0.00 0.00 84 1013.4
20260504110556 13 234 3.2 6.4 0.00 0.00 0.00 84 1013.2
20260504100555 13 0 0.0 0.0 0.00 0.00 0.00 83 1012.8
20260504081609 14 249 3.2 9.7 0.00 0.00 0.00 81 1014.1
20260504081054 14 236 3.2 8.0 0.00 0.00 0.00 82 1014.3
20260504080552 14 287 1.6 4.8 0.00 0.00 0.00 82 1014.2
20260504050556 15 250 3.2 11.3 0.00 0.00 0.00 81 1013.6
20260504045555 14 275 6.4 16.1 0.00 0.00 0.00 81 1013.6
20260504045055 15 297 4.8 16.1 0.00 0.00 0.00 81 1013.6
20260504044603 14 279 4.8 14.5 0.00 0.00 0.00 81 1013.6
20260504044057 14 296 4.8 16.1 0.00 0.00 0.00 81 1013.5
20260504043557 15 273 8.0 16.1 0.00 0.00 0.00 80 1013.5
20260504043055 15 271 4.8 11.3 0.00 0.00 0.00 81 1013.6
20260504042557 15 258 4.8 11.3 0.00 0.00 0.00 81 1013.6
20260504042100 15 0 3.2 11.3 0.00 0.00 0.00 81 1013.6
20260504041556 15 278 3.2 11.3 0.00 0.00 0.00 81 1013.5
20260504041056 15 267 4.8 12.9 0.00 0.00 0.00 80 1013.6
20260504040556 15 216 6.4 12.9 0.00 0.00 0.00 81 1013.4
20260504040105 15 183 3.2 16.1 0.00 0.00 0.00 80 1013.4
20260504035556 15 225 6.4 16.1 0.00 0.00 0.00 80 1013.3
20260504035056 15 200 8.0 14.5 0.00 0.00 0.00 80 1013.2
20260504034600 15 253 4.8 16.1 0.00 0.00 0.00 81 1013.2
20260504034056 15 191 4.8 16.1 0.00 0.00 0.00 81 1013.1
20260504033558 15 175 6.4 16.1 0.00 0.00 0.00 80 1013.2
20260504033126 15 211 3.2 11.3 0.00 0.00 0.00 81 1013.0
20260504032557 15 258 6.4 12.9 0.00 0.00 0.00 80 1012.9
20260504032100 15 171 3.2 16.1 0.00 0.00 0.00 81 1012.9
20260504031558 15 179 3.2 16.1 0.00 0.00 0.00 81 1012.8
20260504031057 14 277 6.4 17.7 0.00 0.00 0.00 81 1012.7
20260504030555 14 246 4.8 17.7 0.00 0.00 0.00 81 1012.8
20260504030101 14 287 8.0 16.1 0.00 0.00 0.00 80 1012.8
20260504025556 15 274 6.4 16.1 0.00 0.00 0.00 80 1012.7
20260504025056 15 162 6.4 16.1 0.00 0.00 0.00 79 1012.7
20260504024600 15 162 6.4 17.7 0.00 0.00 0.00 79 1013.0
20260504024102 15 255 4.8 17.7 0.00 0.00 0.00 79 1012.7
20260504023556 15 181 4.8 19.3 0.00 0.00 0.00 79 1012.7
20260504023104 15 169 6.4 24.1 0.00 0.00 0.00 78 1012.7
20260504022558 15 198 9.7 24.1 0.00 0.00 0.00 78 1012.7
20260504022055 15 308 9.7 20.9 0.00 0.00 0.00 77 1012.5
20260504021559 15 242 4.8 22.5 0.00 0.00 0.00 77 1012.5
20260504021056 15 236 8.0 22.5 0.00 0.00 0.00 76 1012.4
20260504020556 15 171 8.0 19.3 0.00 0.00 0.00 76 1012.3
20260504020101 15 206 6.4 17.7 0.00 0.00 0.00 77 1012.4
20260504015556 15 148 6.4 19.3 0.00 0.00 0.00 77 1012.2
20260504015059 15 247 6.4 19.3 0.00 0.00 0.00 76 1012.3
20260504014555 15 261 8.0 20.9 0.00 0.00 0.00 76 1012.2
20260504014055 15 288 12.9 20.9 0.00 0.00 0.00 75 1012.1
20260504013556 15 240 12.9 20.9 0.00 0.00 0.00 74 1012.1
20260504013111 15 265 8.0 22.5 0.00 0.00 0.00 74 1012.1
20260504012557 15 170 11.3 22.5 0.00 0.00 0.00 74 1012.3
20260504012055 15 268 12.9 22.5 0.00 0.00 0.00 74 1012.4
20260504011559 15 239 8.0 20.9 0.00 0.00 0.00 73 1012.2
20260504011056 15 223 8.0 20.9 0.00 0.00 0.00 72 1012.0
20260504010555 16 224 8.0 20.9 0.00 0.00 0.00 71 1012.2
20260504010112 16 169 6.4 19.3 0.00 0.00 0.00 70 1012.0
20260504005559 15 236 4.8 19.3 0.00 0.00 0.00 70 1012.1
20260504005056 15 213 9.7 19.3 0.00 0.00 0.00 70 1012.1
20260504004624 16 225 9.7 19.3 0.00 0.00 0.00 69 1012.0
20260504004055 16 242 8.0 19.3 0.00 0.00 0.00 69 1011.9
20260504003559 16 237 3.2 20.9 0.00 0.00 0.00 69 1011.8
20260504003055 16 286 6.4 20.9 0.00 0.00 0.00 68 1011.9
20260504002556 16 253 8.0 17.7 0.00 0.00 0.00 67 1011.9
20260504002056 16 265 8.0 22.5 0.00 0.00 0.00 69 1012.0
20260504001607 16 243 8.0 22.5 0.00 0.00 0.00 70 1012.0
20260504001056 16 262 6.4 17.7 0.00 0.00 0.00 71 1011.9
20260504000556 16 258 8.0 19.3 0.00 0.00 0.00 70 1011.7
20260504000055 16 238 8.0 19.3 0.00 0.00 0.00 71 1011.8
20260503235554 16 261 9.7 19.3 0.00 0.00 0.00 72 1011.7
20260503235052 16 187 8.0 20.9 0.00 0.00 0.00 72 1011.6
20260503234558 16 252 9.7 20.9 0.00 0.00 0.00 74 1011.7
20260503234052 16 263 8.0 19.3 0.00 0.00 0.00 75 1011.7
20260503233552 16 227 9.7 25.7 0.00 0.00 0.00 74 1011.6
20260503233059 16 227 9.7 25.7 0.00 0.00 0.00 74 1011.6
20260503232551 16 294 12.9 22.5 0.00 0.00 0.00 72 1011.9
20260503232051 16 261 6.4 25.7 0.00 0.00 0.00 71 1012.1
20260503231557 16 321 11.3 25.7 0.00 0.00 0.00 68 1012.0
20260503231051 16 261 8.0 19.3 0.00 0.00 0.00 69 1012.0
20260503230552 16 246 11.3 19.3 0.00 0.00 0.00 68 1012.1
20260503225554 16 182 8.0 22.5 0.00 0.00 0.00 69 1012.1
20260503225051 16 263 11.3 22.5 0.00 0.00 0.00 68 1012.1
20260503224555 16 171 4.8 17.7 0.00 0.00 0.00 69 1012.3
20260503224052 16 301 9.7 17.7 0.00 0.00 0.00 69 1012.4
20260503223552 16 204 9.7 19.3 0.00 0.00 0.00 69 1012.3
20260503223100 16 293 9.7 19.3 0.00 0.00 0.00 70 1012.5
20260503222552 16 128 9.7 22.5 0.00 0.00 0.00 71 1012.4
20260503222051 16 225 6.4 22.5 0.00 0.00 0.00 71 1012.5
20260503221557 16 258 8.0 20.9 0.00 0.00 0.00 70 1012.6
20260503221054 16 205 11.3 20.9 0.00 0.00 0.00 70 1012.6
20260503220552 17 265 8.0 19.3 0.00 0.00 0.00 69 1012.6
20260503220054 17 208 9.7 19.3 0.00 0.00 0.00 69 1012.8
20260503215552 17 173 8.0 19.3 0.00 0.00 0.00 69 1012.7
20260503215051 16 251 8.0 22.5 0.00 0.00 0.00 70 1012.9
20260503214553 16 250 8.0 22.5 0.00 0.00 0.00 69 1012.8
20260503214058 16 276 9.7 20.9 0.00 0.00 0.00 70 1012.8
20260503213554 16 234 11.3 20.9 0.00 0.00 0.00 69 1012.9
20260503213111 16 217 8.0 19.3 0.00 0.00 0.00 69 1012.9
20260503212555 16 258 6.4 22.5 0.00 0.00 0.00 69 1012.8
20260503212051 16 277 9.7 22.5 0.00 0.00 0.00 68 1012.7
20260503211558 16 299 11.3 24.1 0.00 0.00 0.00 68 1012.9
20260503211051 16 259 9.7 24.1 0.00 0.00 0.00 69 1012.9
20260503210555 16 168 8.0 24.1 0.00 0.00 0.00 70 1013.0
20260503210100 16 310 6.4 24.1 0.00 0.00 0.00 70 1013.0
20260503205552 16 254 14.5 24.1 0.00 0.00 0.00 69 1013.0
20260503205056 16 269 11.3 22.5 0.00 0.00 0.00 70 1012.9
20260503204608 16 248 11.3 22.5 0.00 0.00 0.00 70 1012.9
20260503204056 16 234 12.9 20.9 0.00 0.00 0.00 71 1012.9
20260503203558 16 239 8.0 20.9 0.00 0.00 0.00 70 1012.9
20260503203105 16 240 12.9 19.3 0.00 0.00 0.00 68 1012.8
20260503202556 16 167 11.3 19.3 0.00 0.00 0.00 67 1012.9
20260503202056 16 278 3.2 16.1 0.00 0.00 0.00 69 1012.9
20260503201603 16 246 9.7 16.1 0.00 0.00 0.00 68 1013.0
20260503201056 16 297 6.4 16.1 0.00 0.00 0.00 67 1013.0
20260503200556 16 229 6.4 19.3 0.00 0.00 0.00 68 1013.1
20260503195555 16 301 8.0 19.3 0.00 0.00 0.00 68 1013.2